Winner, SD

6:34 PM CDT on April 24, 2017 (GMT -0500)
Winner

Weather History for KICR - July, 2013

Change the Weather History Date:

Wednesday, July 17, 2013

  Actual Average Record
Temperature  
Mean Temperature 80 °F 76 °F  
Max Temperature 90 °F 89 °F 104 °F (2011)
Min Temperature 70 °F 63 °F 58 °F (2016)
Degree Days  
Heating Degree Days 0 0  
Month to date heating degree days 0 0  
Since 1 June heating degree days 53 54  
Since 1 July heating degree days 0 0  
Cooling Degree Days 15 11  
Month to date cooling degree days 189 168  
Year to date cooling degree days 360 343  
Since 1 June cooling degree days 321 313  
Growing Degree Days 30 (Base 50)    
Moisture  
Dew Point 64 °F    
Average Humidity 57    
Maximum Humidity 73    
Minimum Humidity 41    
Precipitation  
Precipitation 0.00 in 0.07 in 0.07 in (2012)
Month to date precipitation 1.69 1.73  
Year to date precipitation 12.59 13.45  
Sea Level Pressure  
Sea Level Pressure 30.12 in    
Wind  
Wind Speed 14 mph (South)    
Max Wind Speed 22 mph    
Max Gust Speed 30 mph    
Visibility 10 miles    
Events      
T = Trace of Precipitation, MM = Missing Value Source: NWS Daily Summary

Daily Weather History Graph

Daily Weather History Graph

Search for Another Location

Airport or City:

Trip Planner

Search our weather history database for the weather conditions in past years. The results will help you decide how hot, cold, wet, or windy it might be!

Date:

Astronomy

Jul. 17, 2013 Rise Set
Actual Time 6:14 AM CDT 9:16 PM CDT
Civil Twilight 5:40 AM CDT 9:50 PM CDT
Nautical Twilight 4:56 AM CDT 10:33 PM CDT
Astronomical Twilight 4:04 AM CDT 11:25 PM CDT
Moon 4:04 PM CDT (7/17) 1:26 AM CDT (7/17)
Length of Visible Light 16h 09m
Length of Day
15h 01m
Waxing Gibbous, 67% of the Moon is Illuminated
Jul 17
Waxing Gibbous
Jul 22
Full
Jul 29
Last Quarter
Aug 6
New
Aug 14
First Quarter

Hourly Weather History & Observations

Time (CDT) Temp. Heat Index Dew Point Humidity Pressure Visibility Wind Dir Wind Speed Gust Speed Precip Events Conditions
12:53 AM 73.0 °F - 63.0 °F 71% 30.16 in 10.0 mi South 12.7 mph - N/A   Clear
1:53 AM 73.9 °F - 62.1 °F 66% 30.16 in 10.0 mi South 13.8 mph - N/A   Clear
2:53 AM 73.9 °F - 62.1 °F 66% 30.15 in 10.0 mi South 13.8 mph 24.2 mph N/A   Clear
3:53 AM 72.0 °F - 62.1 °F 71% 30.17 in 10.0 mi South 15.0 mph - N/A   Clear
4:53 AM 72.0 °F - 61.0 °F 68% 30.16 in 10.0 mi SSW 12.7 mph - N/A   Clear
5:53 AM 71.1 °F - 62.1 °F 73% 30.16 in 10.0 mi South 12.7 mph - N/A   Clear
6:53 AM 71.1 °F - 62.1 °F 73% 30.17 in 10.0 mi SSW 12.7 mph 21.9 mph N/A   Clear
7:53 AM 72.0 °F - 62.1 °F 71% 30.17 in 10.0 mi South 12.7 mph 20.7 mph N/A   Clear
8:53 AM 75.0 °F - 63.0 °F 66% 30.18 in 10.0 mi SSW 15.0 mph - N/A   Clear
9:53 AM 78.1 °F - 64.9 °F 64% 30.19 in 10.0 mi SSW 13.8 mph 23.0 mph N/A   Clear
10:53 AM 82.0 °F 83.4 °F 64.0 °F 54% 30.17 in 10.0 mi SSW 17.3 mph 25.3 mph N/A   Clear
11:53 AM 82.9 °F 84.4 °F 64.0 °F 53% 30.17 in 10.0 mi SSW 16.1 mph 24.2 mph N/A   Clear
12:53 PM 84.9 °F 86.1 °F 64.0 °F 49% 30.16 in 10.0 mi SSW 18.4 mph 23.0 mph N/A   Clear
1:53 PM 88.0 °F 89.3 °F 64.0 °F 45% 30.14 in 10.0 mi South 16.1 mph - N/A   Clear
2:53 PM 88.0 °F 88.7 °F 63.0 °F 43% 30.12 in 10.0 mi South 19.6 mph 25.3 mph N/A   Partly Cloudy
3:53 PM 90.0 °F 91.3 °F 64.0 °F 42% 30.10 in 10.0 mi South 13.8 mph - N/A   Partly Cloudy
4:53 PM 90.0 °F 91.3 °F 64.0 °F 42% 30.08 in 10.0 mi South 16.1 mph 23.0 mph N/A   Clear
5:53 PM 89.1 °F 90.0 °F 63.0 °F 42% 30.06 in 10.0 mi South 17.3 mph 24.2 mph N/A   Partly Cloudy
6:53 PM 88.0 °F 89.6 °F 64.9 °F 46% 30.04 in 10.0 mi South 13.8 mph 21.9 mph N/A   Clear
7:53 PM 86.0 °F 88.2 °F 66.0 °F 51% 30.04 in 10.0 mi South 9.2 mph - N/A   Clear
8:53 PM 81.0 °F 83.0 °F 66.0 °F 60% 30.03 in 10.0 mi SSE 9.2 mph - N/A   Clear
9:53 PM 77.0 °F - 64.9 °F 66% 30.04 in 10.0 mi SSE 6.9 mph - N/A   Clear
10:53 PM 77.0 °F - 64.0 °F 64% 30.03 in 10.0 mi SSE 13.8 mph - N/A   Clear
11:53 PM 78.1 °F - 64.0 °F 62% 30.02 in 10.0 mi SSE 15.0 mph - N/A   Clear